Weather in Avsallar

Turkey     36°39′22″N   31°46′34″E
temp.,
°C
wind,
m/s
gust,
m/s
humid.,
%
clouds,
%
prec.,
mm/h
press.,
hPa
HPBL,
m
11 april, sun
sun1100:00+5n45590 0.0 101582
03:00+4nne44600 0.0 101565
06:00+3nne44560 0.0 101558
09:00+9n23380 0.0 1016683
12:00+14wsw33323 0.0 10161810
15:00+15ssw433539 0.0 10161598
18:00+12s214521 0.0 1018695
21:00+8e115678 0.0 102013
12 april, mon
mon1200:00+7ne32565 0.0 102021
03:00+7ne325083 0.0 101922
06:00+7ne3248100 0.0 101924
09:00+12nne114166 0.0 1019490
12:00+14ssw433930 0.0 10191556
15:00+14ssw4241100 0.0 10181357
18:00+13ssw224911 0.0 1019614
21:00+9ne116635 0.0 102010
13 april, tue
tue1300:00+8ne22653 0.0 102013
03:00+8ne22605 0.0 102018
06:00+7ne22553 0.0 101915
09:00+13wsw10430 0.0 1020421
12:00+16sw33411 0.0 10191211
15:00+16sw42461 0.0 10191070
18:00+14ssw21541 0.0 1019768
21:00+10ne11705 0.0 102011
14 april, wed
wed1400:00+10ne22709 0.0 102012
03:00+9nne217246 0.0 101911
06:00+9ne1169100 0.0 101910
09:00+13s115699 0.0 1020335
12:00+16sw3253100 0.0 1020870
15:00+17ssw32535 0.0 1019958
18:00+15ssw22635 0.0 1019586
21:00+11ne11830 0.0 102012
15 april, thu
thu1500:00+11ne22825 0.0 101913
03:00+10nne1179100 0.0 101810
06:00+11ene1168100 0.0 101810
09:00+15s1154100 0.0 1018252
12:00+18ssw324682 0.0 1018773
15:00+19sw33443 0.0 1018892
18:00+17sw21545 0.0 1017361
21:00+12ne117210 0.0 101711